GW0655 Weather Reports


time (UTC)temp
F
wind
direction
speed
knots
gust
knots
rain 1hr
in
rain 24hr
in
rain mn
in
humidity
%
barometer
mb
20260504214730 82 176 2.6 4.3 0.00 0.00 0.00 59 1011.3
20260504214227 82 227 4.3 5.2 0.00 0.00 0.00 58 1011.7
20260504213724 82 174 3.5 6.1 0.00 0.00 0.00 58 1011.7
20260504213220 82 293 4.3 6.1 0.00 0.00 0.00 59 1011.7
20260504212717 82 205 2.6 2.6 0.00 0.00 0.00 58 1011.7
20260504212214 82 215 6.1 7.8 0.00 0.00 0.00 57 1011.7
20260504211711 82 188 6.1 8.7 0.00 0.00 0.00 58 1011.7
20260504211207 82 196 2.6 4.3 0.00 0.00 0.00 58 1012.0
20260504210705 82 216 2.6 4.3 0.00 0.00 0.00 58 1012.4
20260504210201 82 226 2.6 4.3 0.00 0.00 0.00 58 1012.0
20260504205659 83 165 5.2 7.8 0.00 0.00 0.00 57 1012.0
20260504205156 82 215 3.5 5.2 0.00 0.00 0.00 57 1012.0
20260504204654 82 156 2.6 5.2 0.00 0.00 0.00 58 1012.0
20260504204153 82 151 7.8 11.3 0.00 0.00 0.00 57 1012.4
20260504203651 82 161 5.2 7.0 0.00 0.00 0.00 57 1012.4
20260504203148 82 176 4.3 6.1 0.00 0.00 0.00 57 1012.7
20260504202643 83 137 7.8 13.9 0.00 0.00 0.00 57 1012.7
20260504202140 82 205 4.3 6.1 0.00 0.00 0.00 58 1012.7
20260504201637 82 219 5.2 8.7 0.00 0.00 0.00 58 1012.7
20260504201135 82 193 5.2 7.0 0.00 0.00 0.00 58 1013.1
20260504200632 82 285 6.1 8.7 0.00 0.00 0.00 57 1013.1
20260504200128 82 181 6.1 8.7 0.00 0.00 0.00 57 1013.5
20260504195624 82 271 1.7 2.6 0.00 0.00 0.00 58 1013.5
20260504195121 83 229 3.5 4.3 0.00 0.00 0.00 56 1013.5
20260504194618 82 198 3.5 5.2 0.00 0.00 0.00 58 1013.5
20260504194113 82 192 4.3 7.0 0.00 0.00 0.00 56 1013.8
20260504193610 82 162 2.6 5.2 0.00 0.00 0.00 58 1013.5
20260504193109 82 206 6.1 7.8 0.00 0.00 0.00 57 1013.8
20260504192606 81 215 6.1 7.8 0.00 0.00 0.00 58 1013.5
20260504192104 81 205 5.2 6.1 0.00 0.00 0.00 59 1013.8
20260504191602 81 226 7.0 7.8 0.00 0.00 0.00 56 1014.1
20260504191058 82 142 4.3 5.2 0.00 0.00 0.00 56 1013.8
20260504190554 81 275 5.2 7.8 0.00 0.00 0.00 58 1014.1
20260504190050 81 220 2.6 2.6 0.00 0.00 0.00 58 1014.1
20260504185547 81 231 1.7 4.3 0.00 0.00 0.00 58 1014.1
20260504185044 81 173 4.3 6.1 0.00 0.00 0.00 58 1013.8
20260504184539 80 221 1.7 1.7 0.00 0.00 0.00 59 1014.1
20260504184035 81 85 4.3 6.1 0.00 0.00 0.00 58 1014.1
20260504183532 82 217 4.3 6.1 0.00 0.00 0.00 57 1014.5
20260504183030 80 201 3.5 5.2 0.00 0.00 0.00 59 1014.5
20260504182527 79 166 3.5 4.3 0.00 0.00 0.00 59 1014.5
20260504182024 80 224 4.3 6.1 0.00 0.00 0.00 58 1014.8
20260504181521 79 138 7.8 9.6 0.00 0.00 0.00 61 1014.8
20260504181020 79 215 7.8 11.3 0.00 0.00 0.00 60 1014.8
20260504180518 80 197 2.6 4.3 0.00 0.00 0.00 60 1014.5
20260504180017 80 192 2.6 4.3 0.00 0.00 0.00 61 1014.8
20260504175513 79 246 8.7 9.6 0.00 0.00 0.00 61 1014.8
20260504175011 79 183 2.6 4.3 0.00 0.00 0.00 62 1014.8
20260504174508 78 191 6.1 8.7 0.00 0.00 0.00 62 1015.2
20260504174005 78 226 7.8 8.7 0.00 0.00 0.00 61 1015.5
20260504173502 77 221 3.5 8.7 0.00 0.00 0.00 64 1015.5
20260504172959 78 194 7.0 7.8 0.00 0.00 0.00 63 1015.5
20260504172455 77 157 2.6 5.2 0.00 0.00 0.00 65 1015.8
20260504171951 77 208 3.5 4.3 0.00 0.00 0.00 65 1015.5
20260504171449 76 208 4.3 5.2 0.00 0.00 0.00 66 1015.8
20260504170945 75 259 3.5 5.2 0.00 0.00 0.00 67 1015.8
20260504170442 76 208 5.2 7.0 0.00 0.00 0.00 67 1015.8
20260504160402 75 234 4.3 6.1 0.00 0.00 0.00 67 1016.5
20260504150826 73 192 4.3 5.2 0.00 0.00 0.00 68 1016.5
20260504150322 72 183 4.3 5.2 0.00 0.00 0.00 69 1016.9
20260504141252 68 116 2.6 4.3 0.00 0.00 0.00 72 1016.9
20260504140749 68 204 3.5 4.3 0.00 0.00 0.00 73 1016.9
20260504140244 68 191 4.3 4.3 0.00 0.00 0.00 73 1017.2
20260504130713 63 217 1.7 1.7 0.00 0.00 0.00 81 1016.9
20260504130209 62 232 0.0 0.9 0.00 0.00 0.00 82 1016.9
20260504120133 59 234 0.9 1.7 0.00 0.00 0.00 86 1016.2
20260504110600 59 174 0.9 1.7 0.00 0.00 0.00 87 1016.9
20260504100522 60 229 0.9 0.9 0.00 0.00 0.00 83 1016.5
20260504081916 61 229 0.0 0.9 0.00 0.00 0.00 80 1017.2
20260504081413 62 248 0.9 0.9 0.00 0.00 0.00 79 1017.5
20260504080908 62 246 0.0 0.0 0.00 0.00 0.00 79 1017.2
20260504080405 62 233 0.0 0.0 0.00 0.00 0.00 79 1017.2
20260504070333 64 210 0.9 0.9 0.00 0.00 0.00 73 1018.2
20260504050721 66 236 1.7 2.6 0.00 0.00 0.00 67 1018.9
20260504050218 66 121 2.6 2.6 0.00 0.00 0.00 66 1019.3
20260504045715 66 146 3.5 5.2 0.00 0.00 0.00 65 1019.3
20260504045215 66 242 2.6 4.3 0.00 0.00 0.00 66 1019.3
20260504044714 66 160 2.6 2.6 0.00 0.00 0.00 66 1019.3
20260504044210 66 197 2.6 5.2 0.00 0.00 0.00 66 1019.3
20260504043708 66 195 1.7 1.7 0.00 0.00 0.00 65 1019.3
20260504043204 66 127 2.6 2.6 0.00 0.00 0.00 65 1019.3
20260504042702 66 254 0.9 1.7 0.00 0.00 0.00 65 1019.3
20260504042158 67 216 0.9 1.7 0.00 0.00 0.00 64 1019.7
20260504041654 67 193 0.0 0.9 0.00 0.00 0.00 64 1019.7
20260504041150 67 135 1.7 2.6 0.00 0.00 0.00 63 1019.3
20260504040647 67 185 0.9 0.9 0.00 0.00 0.00 63 1019.7
20260504040144 67 203 1.7 1.7 0.00 0.00 0.00 62 1019.3
20260504035641 67 182 2.6 2.6 0.00 0.00 0.00 62 1019.3
20260504035138 68 148 2.6 2.6 0.00 0.00 0.00 61 1019.3
20260504034635 68 97 1.7 2.6 0.00 0.00 0.00 61 1019.3
20260504034132 68 170 0.9 1.7 0.00 0.00 0.00 60 1019.3
20260504033630 67 182 0.9 2.6 0.00 0.00 0.00 60 1018.9
20260504033127 66 177 0.9 1.7 0.00 0.00 0.00 61 1019.3
20260504032624 66 137 0.9 0.9 0.00 0.00 0.00 61 1019.3
20260504032120 66 215 0.0 0.0 0.00 0.00 0.00 61 1019.3
20260504031618 66 238 0.0 0.9 0.00 0.00 0.00 62 1019.3
20260504031114 66 249 0.0 0.0 0.00 0.00 0.00 61 1019.3
20260504030611 66 211 0.0 0.0 0.00 0.00 0.00 61 1019.3
20260504030108 66 229 0.0 0.0 0.00 0.00 0.00 61 1018.9
20260504025604 67 239 0.0 0.0 0.00 0.00 0.00 61 1018.9
20260504025101 67 243 0.0 0.0 0.00 0.00 0.00 60 1018.9
20260504024559 67 243 0.0 0.0 0.00 0.00 0.00 60 1018.9
20260504024055 67 222 0.0 0.9 0.00 0.00 0.00 60 1018.9
20260504023552 67 233 0.0 0.9 0.00 0.00 0.00 59 1018.9
20260504023048 68 247 0.0 0.9 0.00 0.00 0.00 60 1018.9
20260504022544 67 244 0.0 0.9 0.00 0.00 0.00 59 1018.9
20260504022040 68 246 0.0 0.0 0.00 0.00 0.00 59 1019.3
20260504021538 68 237 0.0 0.0 0.00 0.00 0.00 58 1018.9
20260504021034 69 237 0.0 0.0 0.00 0.00 0.00 56 1018.9
20260504020531 69 236 0.0 0.0 0.00 0.00 0.00 56 1018.9
20260504020028 69 241 0.0 0.0 0.00 0.00 0.00 55 1018.9
20260504015524 69 256 0.0 0.0 0.00 0.00 0.00 55 1018.5
20260504015020 70 248 0.0 0.0 0.00 0.00 0.00 54 1018.5
20260504014517 70 235 0.0 0.0 0.00 0.00 0.00 54 1018.2
20260504014014 71 234 0.0 0.0 0.00 0.00 0.00 53 1018.5
20260504013512 71 228 0.0 0.0 0.00 0.00 0.00 52 1018.2
20260504013009 71 215 0.9 0.9 0.00 0.00 0.00 51 1018.2
20260504012506 71 239 0.0 0.0 0.00 0.00 0.00 51 1018.2
20260504012004 72 236 0.0 0.0 0.00 0.00 0.00 50 1018.2
20260504011500 72 224 0.0 0.0 0.00 0.00 0.00 50 1018.5
20260504010955 73 227 0.0 0.0 0.00 0.00 0.00 50 1018.2
20260504010452 74 210 0.0 0.9 0.00 0.00 0.00 47 1018.2
20260504005948 74 185 0.9 1.7 0.00 0.00 0.00 46 1018.2
20260504005445 74 209 1.7 1.7 0.00 0.00 0.00 45 1018.2
20260504004943 75 203 0.9 1.7 0.00 0.00 0.00 45 1018.2
20260504004440 75 197 0.9 1.7 0.00 0.00 0.00 45 1017.9
20260504003937 75 249 0.9 0.9 0.00 0.00 0.00 44 1018.2
20260504003433 75 248 0.9 1.7 0.00 0.00 0.00 43 1018.2
20260504002930 76 170 2.6 2.6 0.00 0.00 0.00 42 1018.5
20260504002427 76 205 2.6 2.6 0.00 0.00 0.00 43 1018.5
20260504001924 76 191 2.6 2.6 0.00 0.00 0.00 42 1018.5
20260504001422 76 176 3.5 4.3 0.00 0.00 0.00 41 1018.5
20260504000918 76 195 1.7 1.7 0.00 0.00 0.00 41 1018.9
20260504000416 77 195 2.6 4.3 0.00 0.00 0.00 41 1018.5
20260503235913 77 198 1.7 2.6 0.00 0.00 0.00 40 1018.9
20260503235410 77 287 1.7 1.7 0.00 0.00 0.00 39 1018.9
20260503234908 78 213 3.5 4.3 0.00 0.00 0.00 38 1018.9
20260503234405 78 186 1.7 1.7 0.00 0.00 0.00 39 1019.3
20260503233903 78 151 0.0 0.9 0.00 0.00 0.00 40 1018.9
20260503233359 77 204 1.7 1.7 0.00 0.00 0.00 41 1018.9
20260503232855 77 231 0.9 1.7 0.00 0.00 0.00 41 1018.9
20260503232353 78 228 0.9 0.9 0.00 0.00 0.00 41 1018.9
20260503231850 78 156 1.7 1.7 0.00 0.00 0.00 40 1018.9
20260503231347 78 236 2.6 4.3 0.00 0.00 0.00 40 1018.9
20260503230843 78 240 1.7 1.7 0.00 0.00 0.00 41 1018.9
20260503230340 78 208 1.7 2.6 0.00 0.00 0.00 40 1018.9
20260503225838 78 201 5.2 6.1 0.00 0.00 0.00 39 1018.9
20260503225334 79 224 1.7 1.7 0.00 0.00 0.00 40 1018.9
20260503224830 79 177 2.6 2.6 0.00 0.00 0.00 39 1018.9
20260503224328 79 254 2.6 2.6 0.00 0.00 0.00 37 1018.9
20260503223825 80 196 0.9 1.7 0.00 0.00 0.00 39 1018.9
20260503223323 80 249 0.9 0.9 0.00 0.00 0.00 37 1019.3
20260503222818 80 134 2.6 4.3 0.00 0.00 0.00 38 1019.3
20260503222317 81 230 0.9 0.9 0.00 0.00 0.00 39 1019.3
20260503221815 81 135 0.9 1.7 0.00 0.00 0.00 37 1019.7
20260503221313 80 170 3.5 5.2 0.00 0.00 0.00 37 1019.7
20260503220809 81 210 6.1 7.8 0.00 0.00 0.00 37 1020.0
20260503220306 80 227 0.9 1.7 0.00 0.00 0.00 36 1019.7
20260503215802 80 254 1.7 1.7 0.00 0.00 0.00 36 1019.7
20260503215259 80 189 1.7 2.6 0.00 0.00 0.00 37 1019.7